STARLINK-11232, 60401

Orbit data source: Space-Track

STARLINK-11232, 60401 is a payload satellite owned by SpaceX/Seattle (US) in LEO that was launched on Sat, 10 Aug 2024 UTC via an FALCON 9 launch vehicle from the Air Force Eastern Test Range (AFETR). Payload-class satellites include a variety of spacecraft equipped with specific instruments for various scientific and technological missions. These include communications satellites like Starlink; space stations such as the ISS; scientific satellites like the Hubble; Earth observation satellites from companies like Planet Labs, Umbra, and HawkEye 360; GPS; miniature CubeSats for education and research; and military/defense satellites.

Loading next visibility...
Identifier
60401, 2024-141D
Orbit
LEO
Last TLE update
17 hours ago
Origin
Manufacturer
SpaceX/Seattle
Mission
Operational Commercial Communications
Bus & Motor
STARLINK V2M, Unknown motor
Mass
730 kg wet, ~700 kg dry
Launch date (UTC)
2024-08-10 (11 months ago)
Launch vehicle
FALCON 9
Launch site
Air Force Eastern Test Range (AFETR)
Object type
Payload
Rocket body
Debris
Shape & HBR
Box + 2 Pan, 29 m
Radar Cross Section
36.964 m², Large (>1 m²)

Expand to show TLE details & history

TLE from 17 hours ago
0 STARLINK-11232
1 60401U 24141D   25186.44321110 -.00000470  00000-0  97948-6 0  9996
2 60401  53.1591 224.8308 0001055 100.1033 260.0104 15.69703902 52915
Epoch: 2025-07-05T10:38Z
TLE epoch observation values (Epoch: 2025-07-05T10:38:13.439Z)
Latitude
0.00001°
Longitude
141.59363°
Altitude
360.783 km
Speed
7.694 km/s
True Right ascension
14h 59m 19s
True Declination
0° 00' 00"
Sunlit
Object was in full shadow at epoch
Visualization orbit readout
Latitude
-49.59093°
Longitude
77.14466°
Altitude
377.522 km
Speed
7.683 km/s
Apparent Right ascension
06h 34m 05s
Apparent Declination
-61° 05' 57"
Sunlit
Object is in daylight
Visualization observer readout
Local Sidereal Time
15:05:26
Azimuth
218.419° SW
Elevation
-52.105°
Doppler factor
1
Orbital elements
Apogee altitude
360.716 km
Perigee altitude
359.294 km
Semi-major axis
6,738.142 km
Eccentricity
0.00011
Inclination
53.1591°
RAAN
224.8308°
Arg. of periapsis
100.1033°
True anomaly
Unknown
Mean anomaly
260.0104°
Eccentric anomaly
Unknown
Mean motion
3.92404 °/min
Orbital period
91.74 mins
BSTAR
9.7948e-7
Loading maneuver chart data...
Loading SW <> Apogee altitude chart data...
Loading historical data...
Loading historical data...
Loading historical data...
Loading historical data...
Loading historical data...
Loading historical data...
Loading historical data...

STARLINK-11232 Visibility forecast

Observer location: undefined°, undefined°

Span
Click to sort rows by Start time (UTC) header in descending order
Start Az.
Max El. time (UTC)
Max El. Az.
Max El.
End time (UTC)
End Az.
5 mins2025-07-06 05:09:28.843Z218.953° SW2025-07-06 05:11:28.843Z157.612° S42.612°2025-07-06 05:14:28.843Z54.644° ENE
4 mins2025-07-06 11:34:28.843Z331.038° NNW2025-07-06 11:36:28.843Z47.657° ENE33.2°2025-07-06 11:38:28.843Z104.005° ESE
|